Regional Weather Roundup
Issued by NWS

Home | Current Version | Previous Version | Graphics & Text | Print | Product List | Glossary On
Versions: 1 2 3 4 5 6 7 8 9 10 11 12 13 14 15 16 17 18 19 20 21 22 23 24 25 26 27 28 29 30 31 32 33 34 35 36 37 38 39 40 41 42 43 44 45 46 47 48 49 50
000
ASUS45 KBOI 270910
RWRID

IDAHO REGIONAL WEATHER ROUNDUP
NATIONAL WEATHER SERVICE BOISE ID
300 AM MDT SAT MAY 27 2017

NOTE: "FAIR" INDICATES FEW OR NO CLOUDS BELOW 12000 FEET
WITH NO SIGNIFICANT WEATHER AND/OR OBSTRUCTIONS TO VISIBILITY

IDZ012-014-271000-
SOUTHWEST IDAHO


CITY           SKY/WX    TMP DP  RH WIND       PRES   REMARKS
BOISE          CLEAR     52  42  69 SE6       30.07R
CALDWELL       CLEAR     49  42  77 CALM      30.08R
MOUNTAIN HOME  CLEAR     46  46 100 E8        30.09R
$$

IDZ016-017-271000-
SOUTHCENTRAL IDAHO


CITY           SKY/WX    TMP DP  RH WIND       PRES   REMARKS
BURLEY         CLEAR     39  37  92 CALM      30.12R
JEROME         CLEAR     44  40  85 SE3       30.12R
TWIN FALLS     CLEAR     43  39  86 S10       30.12R
$$

IDZ019>023-271000-
SOUTHEAST IDAHO


CITY           SKY/WX    TMP DP  RH WIND       PRES   REMARKS
IDAHO FALLS    PTCLDY    37  37 100 N3        30.16R
POCATELLO      CLEAR     39  38  96 CALM      30.14R
REXBURG        CLOUDY    40  39  97 N5        30.16R
$$

IDZ006-010-011-018-031-032-271000-
CENTRAL IDAHO MOUNTAINS


CITY           SKY/WX    TMP DP  RH WIND       PRES   REMARKS
MCCALL         CLEAR     41  34  76 CALM      30.13S
HAILEY         CLEAR     39  36  87 NW10      30.17R WCI  32
STANLEY          N/A     32  30  92 CALM      30.21R
SALMON         CLOUDY    46  39  76 CALM      30.11R
CHALLIS        PTCLDY    40  34  79 CALM      30.15R
$$

IDZ002-004-006-007-026-271000-
NORTHERN IDAHO


CITY           SKY/WX    TMP DP  RH WIND       PRES   REMARKS
LEWISTON       CLEAR     55  43  63 CALM      30.05R
LOWELL           N/A     48  45  89 CALM      30.13R
COEUR D`ALENE  CLEAR     55  42  61 S7        30.05R
MULLAN PASS    CLEAR     46  31  55 NW6       30.14R
$$



USA.gov is the U.S. government's official web portal to all federal, state and local government web resources and services.